Location: Newark
(3.3223°N, 76.2348°W)
Time: 14:11:02
(UTC+00:00)

BEESAT 2 - Visible Passes

Search period start: 22 January 2020 00:00
Search period end: 01 February 2020 00:00
Orbit: 493 x 535 km, 64.9° (Epoch: 21 January)

Date Brightness Start Highest point End Pass type
(mag) Time Alt. Az. Time Alt. Az. Time Alt. Az.
22 Jan ? 01:18:07 10° SSW 01:19:22 20° SSW 01:19:22 20° SSW visible
23 Jan ? 01:01:50 10° SSW 01:04:27 41° SW 01:04:27 41° SW visible
24 Jan ? 00:45:32 10° SSW 00:49:21 68° WNW 00:49:36 65° NW visible
25 Jan ? 00:29:14 10° SSW 00:33:03 67° WNW 00:34:50 30° N visible
26 Jan ? 00:12:55 10° SSW 00:16:45 66° WNW 00:20:08 13° NNE visible
26 Jan ? 23:56:38 10° SSW 00:00:26 65° WNW 00:04:18 10° NNE visible
27 Jan ? 23:40:19 10° SSW 23:44:08 64° WNW 23:48:00 10° NNE visible
31 Jan ? 10:41:49 10° NW 10:45:31 41° WSW 10:49:11 10° S visible
